Location: Santa Cristina
(46.5667°N, 11.7167°E)
Time: 16:36:20
(UTC+00:00)

Meteor 1-18 Rocket - Pass Details

Date: 21 April 2021
Orbit: 836 x 909 km, 81.2° (Epoch: 12 May)

Event Time Altitude Azimuth Distance (km) Brightness Sun altitude
Exits shadow 01:09:55 69° 202° (SSW) 948 4.1 -25.8°
Maximum altitude 01:10:40 86° 280° (W) 896 4.2 -25.8°
Drops below altitude 10° 01:16:28 10° 10° (N) 2,537 7.5 -25.2°
Sets 01:18:53 0° 11° (NNE) 3,468 8.5 -25.0°
